Weather History for Tallahassee, FL

Change the Weather History Date:

Tuesday, March 26, 2013

  Actual Average Record
Temperature  
Mean Temperature 45 °F 62 °F  
Max Temperature 56 °F 76 °F 90 °F (1929)
Min Temperature 34 °F 49 °F 28 °F (1979)
Degree Days  
Heating Degree Days 20    
Month to date heating degree days 260  
Since 1 July heating degree days 1238  
Cooling Degree Days 0    
Month to date cooling degree days 17  
Year to date cooling degree days 67  
Moisture  
Dew Point 21 °F    
Average Humidity 39    
Maximum Humidity 54    
Minimum Humidity 24    
Precipitation  
Precipitation 0.00 in 0.17 in 2.05 in (1926)
Month to date precipitation 4.30 5.11  
Year to date precipitation 17.51 14.30  
Sea Level Pressure  
Sea Level Pressure 30.21 in    
Wind  
Wind Speed 11 mph (NW)    
Max Wind Speed 21 mph    
Max Gust Speed 31 mph    
Visibility 10 miles    
Events      
T = Trace of Precipitation, MM = Missing Value Source: NWS Daily Summary

Daily Weather History Graph

Daily Weather History Graph

Search for Another Location

Airport:

Trip Planner

Search our weather history database for the weather conditions in past years. The results will help you decide how hot, cold, wet, or windy it might be!

Date:

Astronomy

Mar. 26, 2013 Rise Set
Actual Time 7:33 AM EDT 7:52 PM EDT
Civil Twilight 7:09 AM EDT 8:16 PM EDT
Nautical Twilight 6:41 AM EDT 8:44 PM EDT
Astronomical Twilight 6:13 AM EDT 9:13 PM EDT
Moon 7:27 PM EDT (3/26) 6:48 AM EDT (3/26)
Length of Visible Light 13h 07m
Length of Day
12h 19m
Waxing Gibbous, 99% of the Moon is Illuminated
Mar 26
Waxing Gibbous
Mar 27
Full
Apr 3
Last Quarter
Apr 10
New
Apr 18
First Quarter

Hourly Weather History & Observations

Time (EDT) Temp. Windchill Dew Point Humidity Pressure Visibility Wind Dir Wind Speed Gust Speed Precip Events Conditions
12:53 AM 46.9 °F - 24.1 °F 41% 30.14 in 10.0 mi NW 8.1 mph - N/A   Clear
1:53 AM 46.9 °F - 19.9 °F 34% 30.15 in 10.0 mi NW 11.5 mph - N/A   Clear
2:53 AM 46.4 °F 40.1 °F 21.2 °F 37% 30.16 in 10.0 mi NNW 15.0 mph 21.9 mph N/A   Clear
3:53 AM 43.0 °F 38.2 °F 21.9 °F 43% 30.16 in 10.0 mi NNW 8.1 mph - N/A   Clear
4:53 AM 41.0 °F 35.2 °F 21.9 °F 47% 30.17 in 10.0 mi NNW 9.2 mph - N/A   Clear
5:53 AM 39.9 °F 34.5 °F 21.0 °F 47% 30.17 in 10.0 mi NW 8.1 mph - N/A   Clear
6:53 AM 37.0 °F 32.4 °F 23.0 °F 57% 30.20 in 10.0 mi WNW 5.8 mph - N/A   Clear
7:53 AM 37.0 °F 31.6 °F 23.0 °F 57% 30.21 in 10.0 mi WNW 6.9 mph - N/A   Clear
8:53 AM 41.0 °F 33.5 °F 21.0 °F 45% 30.23 in 10.0 mi NW 13.8 mph - N/A   Clear
9:53 AM 44.1 °F 37.1 °F 19.0 °F 37% 30.24 in 10.0 mi NNW 15.0 mph 21.9 mph N/A   Clear
10:53 AM 46.0 °F 38.8 °F 19.0 °F 34% 30.25 in 10.0 mi NNW 18.4 mph - N/A   Clear
11:53 AM 48.9 °F - 19.0 °F 31% 30.24 in 10.0 mi NNW 11.5 mph 21.9 mph N/A   Partly Cloudy
12:53 PM 50.0 °F - 19.9 °F 31% 30.24 in 10.0 mi NW 10.4 mph 20.7 mph N/A   Partly Cloudy
1:53 PM 53.1 °F - 19.9 °F 27% 30.22 in 10.0 mi West 16.1 mph 21.9 mph N/A   Clear
2:53 PM 54.0 °F - 19.0 °F 25% 30.20 in 10.0 mi North 10.4 mph 21.9 mph N/A   Clear
3:53 PM 55.0 °F - 19.0 °F 24% 30.19 in 10.0 mi North 16.1 mph 21.9 mph N/A   Clear
4:53 PM 55.0 °F - 19.0 °F 24% 30.18 in 10.0 mi NNW 13.8 mph 23.0 mph N/A   Clear
5:53 PM 55.9 °F - 19.9 °F 25% 30.18 in 10.0 mi NW 17.3 mph 23.0 mph N/A   Clear
6:53 PM 54.0 °F - 19.9 °F 26% 30.20 in 10.0 mi North 12.7 mph 19.6 mph N/A   Clear
7:53 PM 52.0 °F - 21.9 °F 31% 30.22 in 10.0 mi NW 8.1 mph - N/A   Clear
8:53 PM 50.0 °F - 24.1 °F 36% 30.25 in 10.0 mi NNW 6.9 mph - N/A   Clear
9:53 PM 48.0 °F - 25.0 °F 41% 30.28 in 10.0 mi Variable 5.8 mph - N/A   Clear
10:53 PM 46.0 °F 43.1 °F 26.1 °F 46% 30.30 in 10.0 mi Variable 5.8 mph - N/A   Clear
11:53 PM 44.1 °F 40.8 °F 26.1 °F 49% 30.31 in 10.0 mi Variable 5.8 mph - N/A   Clear